Location: *
(50.6089°N, 2.2719°E)
Time: 03:42:34
(UTC+00:00)

STARLINK-63 - Pass Details

Date: 18 October 2019
Orbit: 548 x 551 km, 53.0° (Epoch: 20 November)

Event Time Altitude Azimuth Distance (km) Brightness Sun altitude
Rises 17:32:15 0° 248° (WSW) 2,712 9.0 -6.9°
Reaches altitude 10° 17:34:28 10° 248° (WSW) 1,821 7.8 -7.2°
Maximum altitude 17:38:37 87° 160° (SSE) 556 3.6 -7.9°
Enters shadow 17:42:42 10° 71° (ENE) 1,799 5.6 -8.5°
